Wind_Speed
27 27 32 35 34 33 32 29 26 24 21 20 20 22 23 20 22 25 22 26 30 29 26 26 27 23 19 18 17 17 17 17 18 17 15 15 16 14 15 14 16 17 14 12 11 10 9 9 9 8 5 4 4 6 7 6 5 4 4 4 4 4 4 5 5 5 7 9 12 13 13 14 14 14 15 16 16 16 16 18 19 20 20 21 21 21
28 32 37 36 31 28 29 27 25 27 26 22 21 21 22 23 22 21 23 27 28 27 26 25 23 22 21 19 19 19 17 16 18 17 14 15 16 18 20 19 18 18 16 14 13 12 11 10 9 8 6 5 5 6 7 7 7 8 7 7 7 6 6 7 7 7 9 11 13 15 15 16 16 15 16 16 17 17 18 20 21 22 23 23 23 22
32 37 36 32 29 26 26 27 26 28 30 26 22 21 22 24 22 20 24 28 27 27 26 24 21 20 20 19 19 20 18 16 16 16 15 17 20 22 23 20 19 19 18 18 16 14 13 11 9 7 6 6 6 7 7 8 9 10 10 11 11 11 11 12 12 13 13 13 14 16 16 17 17 17 18 18 18 19 20 21 21 22 24 25 25 24
34 36 31 27 28 27 26 27 26 28 30 28 25 23 24 23 22 23 24 27 27 26 25 25 23 20 20 18 18 19 17 16 15 15 16 20 23 24 22 19 20 20 19 19 18 16 15 12 9 7 7 6 6 7 7 8 9 11 11 12 13 13 14 16 16 16 16 15 16 17 17 17 17 18 19 19 20 21 21 22 22 23 24 25 26 25
31 28 26 27 28 29 29 27 27 29 29 28 27 25 24 23 25 24 22 25 27 26 27 27 24 19 21 19 17 20 18 16 15 16 18 21 24 25 23 20 21 23 21 19 19 18 17 13 10 8 7 6 6 6 7 9 9 10 11 12 13 14 15 16 17 17 17 17 17 18 18 19 19 19 19 20 21 22 22 23 24 25 25 25 26 26
28 23 25 29 30 30 31 28 29 30 27 27 26 25 23 24 26 23 20 23 26 26 29 28 20 15 22 22 18 20 20 18 18 19 20 22 24 25 23 19 20 23 22 21 21 20 18 16 12 10 8 6 7 7 8 9 10 10 11 12 13 13 15 17 18 18 18 19 19 19 20 20 20 20 21 22 22 23 24 25 26 27 26 26 26 26
27 24 27 31 32 31 31 30 29 30 28 25 25 25 23 24 26 23 22 24 25 24 27 30 21 13 20 23 22 23 21 20 20 19 19 20 22 23 22 19 18 20 23 24 23 22 19 17 14 12 10 9 9 9 10 10 11 11 12 13 14 14 15 17 18 19 20 20 21 21 22 21 22 22 23 23 23 24 25 26 28 29 28 26 26 26
29 27 28 31 32 32 33 32 29 31 30 25 24 26 25 24 26 24 25 25 25 23 23 29 25 16 19 24 25 26 23 20 18 18 19 22 24 24 23 22 21 21 23 25 24 23 21 18 16 14 13 12 12 12 12 12 13 13 14 14 16 16 16 17 19 20 21 22 22 23 23 23 23 23 24 24 25 25 26 27 27 29 29 27 26 25
28 29 30 31 33 33 34 32 28 30 30 25 23 24 26 26 25 23 27 26 25 23 22 27 26 16 16 24 26 26 26 23 20 21 23 25 25 24 23 23 24 24 25 26 25 24 22 19 18 16 15 14 15 15 14 14 14 15 16 16 17 18 18 19 20 21 22 23 24 24 24 24 24 25 25 26 27 28 28 28 27 27 28 26 25 23
26 29 28 30 34 33 31 30 27 29 30 26 23 22 27 27 24 23 27 27 25 21 21 28 30 17 11 23 29 27 28 28 25 26 27 25 23 24 25 25 26 26 26 26 26 25 23 21 19 18 17 17 17 17 16 16 16 16 17 18 19 19 19 20 21 22 23 24 24 25 25 25 25 26 26 27 27 28 28 27 25 25 26 25 23 22
25 28 27 28 32 30 28 28 28 28 29 28 24 21 26 26 22 22 25 27 19 14 21 28 31 24 12 19 30 29 30 33 32 30 28 25 24 25 26 27 27 27 26 27 27 26 24 22 21 20 19 19 19 18 17 17 16 17 17 18 19 20 20 21 21 22 23 24 24 24 25 25 26 27 27 27 26 25 25 24 24 24 24 24 23 23
26 27 29 30 30 29 28 28 28 27 29 31 26 20 23 23 21 20 23 24 11 9 23 29 30 28 17 18 30 28 26 32 34 31 29 26 26 25 25 27 27 25 25 27 27 26 25 23 22 22 21 20 20 19 17 17 16 17 17 18 19 20 20 20 20 21 23 24 24 24 25 26 27 27 27 25 23 23 23 23 24 24 25 25 24 24
30 29 29 29 30 30 28 29 30 28 31 33 29 23 21 16 14 13 15 15 10 13 25 28 27 28 21 18 29 30 27 32 33 31 30 28 27 27 26 26 25 24 24 26 26 25 24 24 23 22 22 21 20 18 17 17 16 17 17 18 18 19 19 19 20 21 22 23 24 24 25 26 26 25 24 23 22 23 24 24 25 25 25 25 24 22
29 28 30 31 30 31 30 31 33 32 33 34 31 27 22 12 7 8 9 8 11 17 23 26 24 21 16 13 21 29 28 28 31 31 31 29 28 29 27 25 23 23 23 24 24 24 24 24 23 23 23 21 19 18 17 17 16 16 16 17 17 18 18 19 20 20 21 22 23 23 23 23 23 22 23 23 24 25 24 25 26 26 26 24 23 22
25 23 32 34 31 33 34 33 33 32 33 33 30 28 27 21 12 8 10 10 12 17 22 24 16 8 12 16 17 27 27 27 32 32 31 30 30 29 26 25 23 23 23 23 24 24 23 24 23 23 22 19 18 16 16 15 15 15 15 16 17 18 18 19 19 20 20 20 20 20 20 20 20 21 23 25 26 26 24 25 27 28 27 25 23 22
27 24 31 33 29 32 35 33 31 31 31 30 29 28 29 30 21 11 12 14 11 12 14 14 7 7 18 23 23 28 29 31 33 31 32 31 29 28 26 25 25 24 24 24 24 24 23 23 22 21 19 16 15 14 14 13 13 13 14 16 17 18 18 18 18 18 17 17 17 17 17 18 19 21 23 24 25 26 25 25 27 28 27 26 24 21
27 24 29 32 29 31 33 34 33 31 29 28 29 31 30 30 25 15 13 13 6 4 6 12 14 16 21 19 23 29 30 31 29 26 29 28 26 27 27 27 27 26 26 25 24 23 22 21 19 18 16 14 13 12 12 12 13 14 15 16 17 18 17 16 15 14 14 14 15 16 17 17 19 19 21 22 23 24 25 26 26 27 26 25 23 21
25 22 27 33 32 31 32 32 32 31 29 28 29 30 28 26 25 19 13 8 4 5 7 15 19 20 18 13 20 28 29 30 28 26 27 25 24 26 27 27 26 26 26 25 23 21 19 18 16 15 15 13 12 12 12 12 13 14 15 15 15 15 13 12 12 11 12 13 14 15 16 17 18 18 19 19 20 21 24 26 25 24 24 23 21 20
25 21 23 31 32 30 32 31 30 31 31 29 28 29 26 22 23 21 13 8 8 7 5 15 20 20 18 18 24 29 29 30 30 28 26 23 24 27 27 27 26 26 25 23 21 18 16 16 16 14 13 12 11 11 12 12 12 12 11 12 11 10 10 10 10 10 11 12 13 14 14 15 15 16 16 17 18 20 23 25 24 22 20 19 18 17
25 20 19 29 31 28 32 34 31 32 33 30 27 29 28 24 22 22 18 14 12 8 5 9 12 12 16 19 25 30 32 34 31 28 26 24 25 26 26 27 27 25 23 20 17 15 15 15 14 13 12 11 11 11 11 10 10 8 8 9 9 9 9 9 10 10 11 11 12 12 13 13 14 14 16 16 17 19 21 23 22 20 18 17 16 16
24 21 17 26 31 27 31 36 34 34 36 32 29 31 31 27 25 23 23 22 17 9 6 6 5 9 15 18 23 28 31 33 32 29 27 28 28 27 27 27 25 22 19 17 15 14 14 13 12 12 11 10 10 10 9 9 8 7 8 9 9 9 9 10 10 11 11 10 10 11 11 12 13 14 15 16 16 18 19 21 21 19 17 15 15 15
22 19 17 25 31 30 32 35 33 33 36 35 32 31 31 30 27 19 16 22 23 14 10 9 4 7 15 20 24 27 27 28 31 32 32 32 31 30 28 25 21 18 16 15 14 14 13 12 12 11 10 9 9 9 9 9 8 7 8 9 8 9 10 10 11 11 11 10 10 11 11 12 13 14 15 16 16 16 17 18 19 18 16 15 15 14
20 18 19 23 28 30 29 31 31 30 32 34 32 30 30 31 29 20 12 17 22 18 17 14 5 5 13 24 27 26 24 25 29 32 33 33 32 30 26 21 17 16 15 15 14 14 12 12 11 10 9 9 9 10 10 9 8 8 8 9 9 10 10 10 11 11 11 11 11 11 12 12 13 14 15 16 15 15 15 15 16 17 16 15 16 16
19 17 21 21 23 27 28 30 32 29 28 31 33 31 30 30 31 25 17 16 18 17 16 9 4 5 13 22 26 25 23 24 25 27 30 33 32 27 21 18 16 15 15 15 14 13 12 11 10 9 9 9 9 9 9 9 9 9 9 10 10 11 11 11 11 12 11 11 11 12 12 13 13 14 15 16 16 15 14 14 15 16 16 16 16 16
20 18 24 20 15 20 22 24 29 32 31 31 32 33 30 30 30 26 22 16 12 15 15 4 6 8 18 24 26 24 22 23 22 23 25 27 27 22 18 17 16 16 15 15 13 12 11 11 10 9 8 8 9 9 9 10 10 10 10 11 10 10 11 11 12 12 12 12 12 12 12 13 14 14 15 16 16 16 16 15 16 16 17 18 18 18
19 18 25 20 11 13 14 17 26 34 34 31 32 34 32 29 27 25 23 16 10 14 17 9 13 17 23 26 25 24 23 22 21 22 21 21 19 18 17 17 17 16 15 13 12 12 11 11 10 9 8 8 8 9 10 10 10 11 10 10 10 11 11 12 12 13 13 13 13 13 13 13 14 14 15 16 16 17 17 17 17 18 19 19 20 20
20 18 23 22 17 18 20 23 29 32 31 31 32 33 33 30 28 25 22 18 15 14 10 13 20 25 28 28 27 27 26 23 23 24 22 21 19 17 17 16 16 15 14 13 12 12 11 11 10 9 8 8 9 9 10 10 10 10 10 10 11 11 12 12 12 13 13 14 14 14 14 14 14 15 15 16 16 17 18 18 19 19 20 21 21 22
22 19 21 22 19 18 22 25 29 31 32 32 31 31 31 31 30 27 23 22 22 14 8 17 23 27 33 32 30 31 29 27 26 24 22 20 18 17 16 16 15 14 13 13 12 12 11 10 9 9 8 8 8 9 9 10 10 10 10 11 11 11 12 13 13 13 14 14 15 15 15 15 16 16 16 17 17 17 18 18 19 20 20 21 21 22
21 18 19 22 20 17 18 22 27 32 32 30 28 28 30 30 30 27 22 21 20 11 12 23 24 28 35 35 32 32 30 29 26 22 20 19 16 16 15 14 14 13 13 13 12 11 10 9 9 8 8 8 8 8 9 9 10 10 11 11 11 12 13 14 14 14 14 15 15 16 17 17 17 17 17 17 18 18 18 19 20 20 20 20 21 21
18 15 17 19 18 17 18 21 26 28 28 30 27 25 29 31 27 21 14 15 14 9 17 25 26 29 35 36 34 33 31 30 25 20 19 18 15 15 14 13 14 13 12 12 10 9 8 7 7 7 7 8 8 8 9 10 10 11 11 11 12 13 14 15 16 15 16 16 17 17 18 18 18 19 19 19 19 19 19 20 20 20 21 21 21 22
17 14 16 16 17 19 17 18 25 27 27 29 24 18 22 24 17 11 11 13 16 20 23 24 27 30 33 35 35 35 33 29 23 20 19 17 15 15 14 13 13 12 11 10 8 8 6 5 5 6 6 7 8 9 10 10 11 12 12 13 13 14 15 17 16 16 16 17 17 18 18 19 19 20 20 20 21 21 21 21 21 21 22 22 23 23
16 12 16 17 17 17 14 12 20 25 23 20 15 11 13 15 16 17 17 14 15 23 25 23 26 28 30 34 36 34 30 25 21 21 21 18 16 15 15 14 12 10 9 8 7 6 5 3 4 4 5 7 8 9 9 10 12 13 13 14 14 15 17 17 17 16 17 17 18 18 19 19 20 20 21 21 21 21 21 22 22 22 23 23 24 25
15 12 19 21 16 13 14 12 14 18 16 11 11 11 9 13 17 18 19 14 11 15 19 17 18 20 26 33 36 33 29 26 24 23 21 18 17 17 15 13 11 10 9 7 6 5 2 1 2 3 6 7 8 8 9 10 11 13 14 14 13 15 17 18 17 17 17 18 18 19 19 20 20 20 21 21 21 21 22 22 23 23 24 25 26 27
13 13 20 23 14 10 13 14 12 11 9 7 9 11 11 14 17 17 16 15 12 12 13 12 11 15 21 29 34 33 30 28 26 24 21 19 17 16 14 12 11 10 8 6 4 3 2 2 3 5 6 7 7 8 8 9 11 14 13 12 13 16 19 19 18 17 18 18 19 19 20 21 21 21 21 22 22 22 23 23 24 25 26 26 27 27
14 16 22 22 13 10 16 17 9 3 6 11 13 11 12 13 16 19 19 16 14 13 13 13 11 13 18 24 29 31 31 30 28 24 22 20 17 14 13 13 11 9 6 5 4 4 4 5 5 4 6 8 8 9 9 11 14 15 13 12 15 17 19 20 18 17 18 19 19 20 20 21 21 22 22 23 23 23 24 25 25 26 27 28 28 29
18 17 19 18 12 11 14 13 7 4 11 18 15 10 12 14 14 19 22 19 17 17 17 16 13 13 17 21 24 28 30 30 28 24 22 19 16 14 14 13 11 8 5 6 7 6 6 5 4 4 6 8 8 9 10 11 14 15 14 16 18 18 19 19 18 17 17 17 17 19 19 20 21 22 22 23 24 24 25 26 27 28 28 29 30 30
21 18 16 14 14 15 13 8 6 7 11 17 16 12 14 16 16 19 18 17 19 21 20 19 15 14 15 16 20 25 27 27 26 24 22 19 16 16 17 15 11 8 5 6 7 6 4 4 5 6 7 8 9 9 10 12 14 15 15 16 17 18 18 17 15 15 15 15 15 16 17 18 20 20 21 23 24 25 26 27 28 28 29 29 29 29
19 17 14 10 12 18 17 10 6 4 4 11 17 16 14 16 20 20 15 14 18 21 21 19 15 13 14 15 18 22 24 25 25 24 22 19 17 18 18 15 11 7 5 5 6 4 3 4 6 7 8 9 9 9 10 12 13 13 13 13 13 15 15 14 13 13 13 13 13 14 15 16 18 19 20 21 22 23 24 26 27 27 27 28 27 27
16 17 14 8 9 16 16 9 5 3 1 7 15 16 13 16 18 15 11 12 16 17 17 16 13 12 13 15 18 24 26 27 27 25 22 19 18 18 17 13 9 7 6 7 6 4 4 5 6 7 8 9 9 9 9 10 11 10 10 10 11 12 13 12 12 12 12 13 13 14 15 16 17 18 19 20 21 22 22 23 24 24 24 25 25 25
17 16 14 11 10 13 13 9 7 6 5 7 11 12 12 13 15 11 7 11 16 15 13 14 14 15 16 18 21 26 26 23 23 23 22 19 18 17 14 10 8 7 8 7 6 5 5 5 6 8 8 8 7 7 8 8 8 8 8 9 10 11 13 13 13 13 13 13 14 15 15 16 17 18 19 20 20 21 21 21 21 22 22 22 22 23
19 16 15 12 11 12 12 11 9 9 11 10 8 9 10 11 12 9 5 8 14 15 14 15 15 17 20 23 24 25 23 20 18 20 21 20 18 15 11 9 9 9 9 8 6 5 4 4 6 8 7 7 6 6 6 7 6 7 8 9 9 11 12 13 13 14 14 14 15 15 15 16 17 18 19 20 21 21 22 22 22 22 21 21 21 22
17 16 14 11 9 10 13 14 10 9 13 13 9 12 12 9 9 10 7 8 12 14 14 16 18 20 23 25 26 24 23 23 20 19 20 19 17 13 10 9 10 11 10 8 6 5 4 3 5 7 6 6 5 5 5 6 7 8 8 8 9 10 11 12 13 14 14 14 15 16 15 15 17 18 19 20 21 22 22 22 22 23 22 22 22 21
15 14 11 8 8 10 12 12 7 6 13 14 11 13 13 8 9 13 10 9 11 13 15 17 19 21 22 23 24 23 22 23 22 19 17 16 14 13 12 11 12 11 9 7 6 5 4 3 4 6 6 5 4 4 4 5 6 8 8 8 8 9 10 11 12 13 14 14 15 16 16 16 16 17 18 18 19 20 21 21 21 22 22 22 22 21
12 12 10 9 11 12 10 8 5 6 13 14 10 13 17 13 12 14 12 12 14 15 16 18 18 18 18 18 20 21 20 20 20 17 15 14 14 13 13 12 11 9 8 7 6 5 3 2 3 5 4 4 3 3 4 5 5 7 7 7 8 9 9 10 11 13 13 14 14 15 16 16 17 18 18 17 18 18 19 20 20 20 21 21 20 20
9 11 13 11 12 13 12 13 11 11 16 17 14 16 19 16 14 15 14 13 14 14 14 15 15 17 19 19 19 20 19 19 18 17 15 15 14 13 11 10 10 10 9 8 6 4 2 1 2 3 2 2 2 3 4 6 6 7 7 8 8 9 9 10 10 11 12 13 14 15 16 16 17 17 18 18 18 18 19 19 20 21 21 21 21 20
10 9 9 10 14 16 15 15 13 14 18 18 17 17 18 16 15 17 16 13 12 13 14 14 15 18 21 21 20 20 20 18 17 15 14 13 13 11 10 10 11 11 10 7 5 3 2 0 0 1 2 3 4 6 7 8 9 9 9 10 10 10 10 11 11 12 13 14 14 15 16 17 17 17 17 17 17 18 19 20 20 21 21 21 21 20
11 6 7 12 15 15 14 14 13 15 18 17 15 16 17 15 14 15 15 13 13 14 16 16 17 19 20 20 19 19 19 17 14 13 13 13 12 11 12 13 13 12 9 6 4 4 3 3 4 5 6 7 8 9 10 10 10 10 11 12 12 12 12 11 12 13 14 15 16 16 17 18 17 17 18 17 17 17 17 18 19 19 20 20 20 20
9 6 7 12 13 11 14 17 15 15 15 13 12 14 16 15 15 15 14 14 15 17 19 19 19 19 20 20 19 18 17 15 12 12 14 13 13 14 14 14 12 10 8 6 6 7 7 8 9 9 10 10 11 11 11 11 12 12 12 13 14 14 13 14 14 15 15 15 16 17 18 18 19 19 19 19 19 19 18 17 18 19 20 20 21 21
9 8 6 8 11 14 18 20 17 16 15 12 12 15 16 15 15 15 16 16 16 18 20 21 21 20 20 21 20 17 15 13 12 12 13 14 15 16 14 12 11 9 8 8 9 10 11 12 13 13 13 14 13 12 12 12 13 13 14 14 15 15 15 15 15 16 16 17 17 17 18 18 19 20 20 20 20 20 20 19 19 20 21 21 21 21
7 6 3 4 10 14 16 18 18 16 15 14 15 16 16 15 15 17 18 18 17 18 20 21 23 23 22 21 20 16 13 13 13 13 14 16 17 15 13 12 11 11 11 13 14 14 15 15 15 16 16 15 14 13 12 12 13 14 14 14 15 15 15 15 15 16 17 17 18 18 18 19 19 20 20 20 20 21 22 22 22 22 22 22 22 22
10 7 2 2 7 11 13 16 17 15 14 16 17 17 18 17 16 18 20 18 18 18 18 18 21 23 22 20 18 15 15 15 14 14 15 16 15 13 12 13 14 15 15 16 16 17 18 18 18 17 16 15 14 13 13 12 12 13 14 14 15 16 16 16 17 17 17 17 18 18 18 19 20 20 20 20 21 22 22 23 23 23 23 23 23 22
Wind_Direction
193 200 204 207 208 206 208 210 213 219 220 218 213 213 221 219 220 224 205 184 186 192 198 211 214 199 187 189 185 185 188 194 196 193 202 206 200 200 197 195 200 197 189 190 190 192 207 220 230 233 235 253 249 248 257 257 263 266 264 275 275 281 285 285 299 306 313 325 327 328 330 331 334 335 332 329 331 335 336 336 334 334 333 331 329 320
196 206 211 209 207 206 208 211 213 222 230 228 219 215 219 221 222 219 195 178 184 193 198 208 206 188 185 189 186 184 184 192 194 188 193 194 190 200 201 197 200 194 184 191 200 200 211 223 227 227 223 229 237 241 250 256 268 281 287 291 289 289 283 275 288 307 318 326 326 327 328 328 331 331 327 324 326 329 331 332 332 333 334 334 334 327
203 212 214 209 207 207 209 211 212 222 232 236 229 216 217 222 219 211 190 176 184 195 197 196 186 174 178 181 179 180 180 185 187 183 191 194 194 202 205 201 200 196 189 193 203 205 212 221 220 219 213 212 226 234 244 251 259 273 283 289 293 297 298 301 313 323 325 325 323 323 324 327 328 326 324 323 324 327 329 329 330 332 333 334 334 331
206 214 211 205 206 206 208 210 211 220 229 236 236 220 215 217 216 210 192 183 188 194 198 190 172 163 169 173 177 181 181 181 182 184 194 199 200 205 209 206 203 203 196 193 202 208 215 219 213 215 211 206 216 225 237 246 254 264 272 280 287 293 298 305 313 317 317 317 316 317 320 322 323 322 321 322 324 327 328 328 329 330 331 333 334 333
209 212 205 203 205 205 209 209 208 217 224 229 235 229 216 210 216 214 192 182 183 194 208 190 165 165 173 172 175 179 177 173 173 180 195 203 202 207 214 206 196 195 193 194 204 211 217 220 214 215 216 213 217 218 231 241 249 258 265 273 279 286 293 298 304 306 307 308 308 311 314 317 318 320 321 322 325 326 325 326 327 327 328 331 333 333
213 208 201 202 204 204 208 209 206 212 219 223 229 229 216 205 215 213 187 179 181 197 210 186 159 169 179 178 176 175 176 177 178 178 190 201 202 207 212 200 187 187 191 199 208 213 217 219 218 220 223 227 230 228 236 246 254 261 266 272 277 283 288 292 296 299 302 303 304 307 309 313 317 320 322 323 324 324 324 324 324 324 325 328 332 333
212 206 201 201 203 203 206 210 207 207 214 219 218 222 221 211 213 203 178 181 189 200 203 185 175 175 179 188 185 177 176 179 187 192 197 203 203 210 213 205 195 190 195 205 212 216 219 221 223 225 229 233 237 240 246 254 262 269 273 277 282 284 287 290 293 297 299 300 302 305 307 312 317 320 322 322 322 322 322 323 323 321 321 325 328 331
209 203 200 201 202 202 206 209 206 204 211 217 210 217 226 216 213 200 176 185 199 205 200 186 185 183 184 195 191 185 185 179 183 189 196 203 204 210 213 210 208 205 209 215 218 221 223 224 225 228 233 235 239 245 251 259 265 272 278 283 287 289 290 292 295 298 298 299 300 303 306 309 315 319 321 321 320 320 321 322 320 317 318 322 325 328
204 202 200 199 201 203 205 207 204 203 211 215 208 215 224 220 222 203 176 184 201 208 211 197 191 191 192 194 187 184 185 181 178 178 188 200 204 209 214 217 219 219 221 222 223 224 226 227 228 231 237 239 245 250 254 260 265 272 278 284 288 290 292 293 297 299 299 300 301 302 304 307 313 318 320 320 320 321 321 320 318 315 316 320 323 324
201 204 201 198 202 205 204 204 203 202 207 211 207 211 221 226 232 210 183 188 200 208 221 208 198 200 197 190 185 183 186 184 177 179 191 201 204 210 214 218 222 224 225 225 224 226 227 229 230 234 239 243 249 254 258 263 267 273 277 281 285 288 291 293 295 298 299 302 304 305 305 306 311 315 316 318 319 320 320 321 321 318 318 321 323 322
202 204 205 202 203 205 202 202 205 203 202 210 212 208 215 225 234 223 198 191 197 210 223 215 204 205 201 185 187 190 193 188 181 185 196 203 206 211 214 219 225 227 227 225 225 227 228 229 232 236 241 246 251 256 262 267 271 274 276 279 283 287 290 292 295 299 301 303 305 306 307 307 309 312 313 316 318 319 321 323 324 323 323 324 324 322
203 201 207 206 202 203 201 201 204 202 198 210 220 207 206 221 233 228 201 190 194 213 216 216 209 211 214 193 190 193 197 196 194 198 201 202 208 212 216 223 228 229 225 221 223 226 229 231 234 239 244 249 254 259 265 270 273 275 278 281 284 287 290 292 296 298 300 303 305 307 307 307 308 311 313 315 318 319 321 323 323 323 323 321 320 321
204 200 204 204 200 201 199 197 200 199 197 210 223 210 199 213 224 217 191 186 210 218 215 211 203 213 221 195 186 191 200 202 200 203 205 206 211 216 221 225 226 225 220 217 220 224 228 233 237 243 248 251 256 261 266 271 275 276 278 280 282 285 287 290 293 295 299 304 307 308 307 308 309 311 313 315 316 318 320 320 319 318 317 314 311 311
202 201 203 202 199 198 196 194 195 195 198 208 216 207 199 200 206 199 183 190 214 219 220 210 200 211 205 165 171 183 188 193 195 204 211 210 214 219 221 219 218 218 214 213 218 223 228 234 240 247 250 254 258 264 269 272 273 273 274 276 278 280 283 286 290 294 300 303 305 306 306 308 310 312 314 314 315 317 320 320 317 315 312 307 301 299
198 199 199 196 192 194 199 200 196 195 201 207 208 204 202 205 209 193 186 196 201 209 215 205 202 206 153 133 156 172 175 187 199 209 213 212 217 220 217 212 210 211 210 212 217 222 228 235 241 247 251 257 262 265 267 267 267 269 271 275 277 281 284 289 293 298 301 302 303 305 307 309 312 312 313 315 317 319 322 322 318 314 308 298 291 290
200 201 196 194 192 193 199 203 198 194 200 205 205 206 204 207 211 205 211 219 209 210 207 182 145 117 138 142 154 164 175 192 201 207 211 213 218 218 210 205 205 206 208 213 218 223 230 236 242 248 252 257 257 258 259 261 266 269 274 279 283 288 292 295 298 300 301 302 304 306 308 310 311 312 315 318 320 322 324 323 317 311 303 295 290 288
199 199 193 195 199 198 198 203 201 196 197 200 205 208 203 205 208 200 216 234 241 245 190 134 110 123 141 152 164 169 177 189 196 204 210 216 219 213 203 199 202 205 208 214 219 225 232 237 243 245 245 245 245 251 258 264 271 276 281 288 291 295 296 297 298 298 299 301 303 306 309 311 313 316 320 322 324 324 325 325 319 311 303 298 293 288
197 195 189 193 201 201 198 203 205 201 198 198 204 205 200 207 213 202 203 217 219 242 181 136 134 145 148 154 175 182 182 186 197 206 213 220 216 204 198 198 202 205 210 216 220 225 231 233 236 236 236 240 245 254 262 268 276 282 288 291 293 295 295 295 295 294 298 302 305 309 312 315 317 321 325 326 326 326 329 329 323 315 309 302 296 289
205 197 185 191 199 197 196 204 209 204 202 204 204 199 197 208 211 199 199 204 198 226 183 137 146 163 169 163 172 187 193 193 200 208 212 213 205 198 195 198 203 207 212 216 216 219 221 224 229 232 237 244 249 257 266 273 281 287 291 290 290 292 292 292 293 295 300 304 309 312 314 315 318 323 329 332 330 330 335 335 329 321 316 309 301 294
211 206 185 189 196 192 192 205 210 199 200 209 206 199 205 216 213 199 200 209 206 213 195 155 157 176 188 186 183 189 196 200 203 205 207 205 201 199 196 198 204 207 210 210 208 210 213 219 228 233 240 247 253 264 272 278 284 285 282 280 282 287 289 293 295 297 301 305 307 309 310 314 318 324 331 335 334 335 340 343 337 328 323 317 306 298
209 211 189 186 194 193 192 202 207 196 194 201 200 198 206 216 218 210 205 209 215 218 192 172 163 167 181 199 203 196 195 202 205 203 204 206 203 200 199 201 203 203 203 202 200 205 212 220 229 234 242 250 259 268 273 274 275 270 268 273 282 288 291 294 294 294 296 298 300 304 309 315 318 323 329 335 337 338 343 348 347 338 327 319 311 306
203 204 189 186 192 196 197 199 202 198 195 199 201 201 205 210 214 214 206 207 214 223 214 192 154 142 164 180 195 199 196 201 209 208 207 208 205 202 202 203 201 199 198 198 200 206 213 220 228 234 242 251 259 266 270 271 269 266 272 280 286 289 290 291 289 287 289 290 295 304 310 316 319 321 326 332 336 339 342 347 350 346 334 321 314 311
200 193 183 188 193 196 199 198 200 201 198 200 207 208 207 210 214 215 208 204 208 221 223 202 155 119 166 176 183 191 194 200 211 213 210 209 207 204 203 201 198 197 197 200 206 211 216 223 231 239 247 256 263 268 271 271 268 269 275 282 285 287 289 287 284 284 285 288 296 305 310 314 318 321 324 328 332 337 340 341 343 343 337 325 317 312
199 188 174 185 199 202 201 198 200 206 204 201 206 211 211 210 214 221 225 213 208 219 221 197 127 136 167 172 176 183 192 202 209 211 210 209 206 203 199 195 194 196 199 206 211 215 221 228 237 244 250 258 264 267 268 264 265 271 276 282 286 287 287 282 279 281 284 289 296 303 308 311 315 320 324 326 327 330 334 336 335 334 331 325 320 314
187 182 176 180 197 204 202 194 196 208 215 209 205 211 216 213 211 218 226 226 223 226 221 176 91 151 165 165 171 182 196 203 206 207 207 207 205 199 192 191 194 197 202 208 211 216 224 230 236 242 247 256 258 258 259 259 264 271 275 280 283 283 281 277 278 282 283 287 293 297 302 305 309 317 322 325 326 325 326 329 329 328 326 323 320 317
178 178 182 185 189 195 196 189 192 202 211 209 205 209 214 215 213 212 213 214 216 224 221 175 124 143 162 167 172 186 198 201 202 200 196 195 196 193 188 189 194 199 203 207 210 216 224 228 234 240 244 250 252 253 258 262 266 270 273 275 275 274 275 275 276 280 281 285 289 291 295 298 303 310 316 320 322 322 322 323 324 325 324 322 320 318
181 182 188 196 201 199 198 197 194 197 202 203 204 207 211 218 223 219 211 207 208 214 202 161 149 152 160 167 175 188 201 206 205 198 187 182 183 185 188 192 195 199 201 206 212 217 224 227 230 237 243 250 255 258 264 267 267 269 270 269 270 272 274 275 276 279 281 285 288 290 292 295 300 305 309 312 315 316 317 318 319 321 321 321 321 320
186 189 192 202 207 201 201 201 195 195 201 203 203 204 207 215 223 222 214 209 213 216 158 152 164 161 160 168 180 193 204 212 209 199 186 183 182 182 188 193 197 202 204 210 217 220 224 229 231 239 247 252 259 263 266 267 266 266 266 265 269 272 275 278 280 282 285 288 292 294 295 297 300 303 304 306 308 309 311 312 313 314 316 317 320 321
190 193 194 203 210 206 209 209 201 197 200 204 207 206 203 211 224 230 220 207 213 214 149 154 161 157 161 174 187 196 205 211 207 195 184 184 182 182 188 194 200 207 210 214 219 219 223 228 231 239 246 249 256 260 261 263 263 263 264 266 270 275 278 282 284 287 289 292 294 295 297 299 300 301 303 303 304 304 305 306 306 307 309 311 315 318
194 196 195 200 204 208 221 220 205 197 197 201 209 211 203 205 219 230 211 191 199 176 144 154 155 152 165 179 187 193 201 204 199 187 179 179 179 182 189 195 201 206 209 210 211 211 215 220 224 234 241 244 252 256 258 262 264 265 268 270 273 278 282 283 284 289 292 294 295 295 297 299 300 301 302 301 301 301 301 302 302 302 303 305 308 311
194 194 192 191 192 201 221 219 203 199 199 198 203 212 203 191 186 179 153 152 158 143 141 159 161 158 171 183 189 194 197 195 190 183 180 179 182 187 190 193 198 200 202 204 203 199 198 203 213 223 234 248 260 265 267 270 270 273 276 277 279 281 282 282 284 289 292 293 295 295 296 298 299 300 300 299 300 300 300 301 300 300 301 302 304 307
192 179 174 176 185 202 218 208 195 197 196 185 173 181 189 160 132 131 135 139 149 142 144 163 171 172 183 191 197 199 194 189 188 189 187 186 189 192 193 194 195 193 195 195 187 184 183 188 207 219 235 255 269 274 277 278 278 279 280 280 283 284 283 283 286 291 294 294 295 296 296 297 297 297 297 297 298 299 299 300 300 300 300 301 303 304
190 177 172 172 175 199 207 186 166 167 167 150 122 125 140 132 128 131 127 129 154 157 155 164 177 190 196 197 201 198 189 189 192 190 188 189 192 195 196 199 195 186 181 172 166 177 178 171 229 239 241 252 265 273 282 289 288 286 284 285 286 284 283 286 291 296 298 297 297 297 297 296 296 296 296 296 297 297 298 299 299 300 300 300 302 303
184 180 175 174 179 196 187 169 152 150 150 123 113 130 136 130 141 149 139 136 152 162 166 173 189 206 204 200 200 196 190 192 195 190 189 194 199 200 198 199 192 179 174 167 164 177 163 187 230 240 249 262 272 277 285 291 288 286 288 288 284 281 284 290 296 300 300 299 300 300 300 299 299 299 299 299 300 300 300 300 300 301 301 301 302 302
177 175 171 173 181 172 155 155 162 165 137 123 117 139 160 146 152 167 164 161 167 170 179 191 196 199 198 197 198 196 194 193 192 192 195 196 199 198 195 197 189 178 184 184 167 170 183 205 232 255 274 279 278 279 281 281 283 289 294 291 284 283 289 295 300 301 301 301 302 302 302 302 302 302 303 303 304 304 303 303 303 303 303 303 303 303
176 173 174 183 186 160 149 160 172 141 140 140 125 130 162 158 162 175 170 168 179 183 188 197 196 190 190 190 191 194 195 194 193 195 195 192 191 191 194 198 192 183 184 171 164 181 209 230 260 284 286 284 282 281 280 279 285 293 299 298 296 296 296 298 302 304 302 303 303 302 302 302 302 304 304 304 304 304 304 305 304 303 303 303 304 304
182 171 169 186 186 162 143 135 136 129 145 156 150 149 163 162 169 182 175 168 180 188 192 198 201 198 194 189 186 188 191 194 194 191 187 184 184 187 191 191 185 178 176 171 178 202 235 259 279 287 289 291 288 282 280 281 286 293 299 301 303 303 302 304 309 309 307 308 308 306 305 305 305 305 304 304 304 303 304 304 303 303 302 302 303 303
184 178 168 173 171 157 140 116 116 134 159 175 167 161 168 175 182 190 188 180 189 193 192 196 203 201 194 186 179 178 181 186 188 187 185 185 188 192 192 187 179 176 186 194 197 213 253 277 287 293 296 295 290 284 284 288 293 299 303 304 306 305 306 311 316 315 315 317 315 313 313 311 309 308 306 306 305 304 304 304 303 303 303 302 302 302
182 188 186 176 157 154 149 137 130 114 143 197 179 167 175 185 181 181 187 195 199 196 190 190 188 182 181 177 169 170 177 185 190 192 190 188 189 190 187 182 179 186 196 199 205 230 262 276 291 302 303 300 296 294 295 298 304 308 308 308 311 310 310 315 319 318 319 317 315 316 315 313 312 312 310 308 307 307 307 305 304 304 305 305 305 305
178 181 185 187 172 160 149 128 104 97 121 171 173 170 181 180 164 161 194 207 196 185 179 178 171 165 164 163 165 173 182 188 190 189 186 185 186 184 182 184 191 198 198 198 211 236 247 263 295 312 314 311 306 304 307 311 314 315 314 315 319 318 317 319 321 321 321 319 317 315 315 315 314 312 311 309 309 310 309 307 307 306 307 309 309 309
165 165 170 177 176 166 145 117 106 124 143 147 151 168 172 161 162 179 207 194 180 174 170 170 167 160 157 161 170 178 180 182 187 189 186 183 185 186 191 201 201 198 197 200 210 225 232 265 303 318 321 315 310 312 317 323 323 319 320 324 324 323 322 323 324 324 325 324 320 319 322 321 316 313 313 312 313 313 311 310 309 308 308 310 311 313
155 161 166 172 179 167 142 123 116 137 152 151 159 172 162 151 179 193 175 155 167 174 175 170 164 161 162 169 179 181 176 176 185 192 189 185 189 195 198 202 199 195 197 201 209 223 233 268 306 321 323 315 316 325 327 330 328 323 326 330 327 326 326 326 326 327 327 327 323 322 326 325 319 316 316 315 316 316 315 313 312 311 310 311 312 314
148 151 154 158 162 154 136 124 117 149 164 163 166 172 166 164 191 191 179 173 178 181 183 178 172 173 177 179 179 178 176 176 180 187 191 191 195 193 188 192 198 196 199 205 210 221 232 264 311 320 321 320 327 338 337 334 330 330 336 339 335 335 335 331 329 330 331 330 327 325 327 326 323 321 318 318 319 319 319 319 318 317 316 316 316 316
147 158 164 145 139 144 136 126 129 166 174 172 172 180 181 180 183 185 190 195 188 183 187 188 183 181 180 175 173 174 177 180 180 182 185 184 183 183 184 191 199 199 199 199 197 206 233 289 319 320 327 339 351 357 356 355 354 355 359 0 355 352 348 340 336 336 335 334 332 332 332 334 334 332 328 327 326 325 326 327 326 325 326 325 325 324
136 162 174 160 151 156 147 137 143 161 174 179 184 187 187 182 178 180 186 192 188 182 183 185 179 169 164 165 170 172 172 175 175 173 173 174 177 185 192 195 196 195 192 189 186 197 235 299 321 325 345 18 36 39 37 37 38 34 30 28 23 14 8 1 354 351 348 346 345 344 343 345 347 344 341 339 336 334 334 334 333 333 334 334 334 334
117 140 160 155 155 157 147 143 155 163 169 179 187 187 184 179 174 177 180 182 181 176 172 172 172 168 164 163 167 170 170 171 172 172 175 180 185 191 194 191 186 182 180 182 184 187 191 200 17 59 93 101 90 81 77 68 59 51 44 42 41 35 27 20 14 10 7 3 360 358 356 356 356 354 351 350 347 343 341 341 339 338 338 338 340 341
108 125 134 132 140 147 142 144 159 165 168 179 186 182 180 176 171 176 179 177 175 174 170 168 168 166 161 159 166 172 171 169 175 183 185 187 190 189 183 178 175 173 177 182 174 154 142 131 124 119 115 110 99 92 87 75 64 57 50 46 46 44 39 33 27 23 19 15 11 8 6 5 4 3 2 1 358 354 351 349 347 345 343 343 344 345
128 151 141 135 142 151 148 146 152 158 165 180 185 179 180 181 176 175 175 173 175 174 168 163 163 162 159 160 167 173 170 167 174 184 183 179 178 176 172 170 171 174 176 170 149 140 139 134 128 122 115 107 98 91 84 74 66 62 55 49 47 45 41 37 34 32 29 23 17 14 13 11 9 7 7 7 5 3 1 358 356 355 355 353 352 351
156 165 158 156 155 150 149 154 157 152 150 165 178 176 177 181 178 172 168 166 169 170 165 161 162 164 166 167 169 170 171 169 168 170 171 167 166 166 166 168 171 169 161 151 144 142 139 131 125 119 110 102 96 90 82 73 67 63 59 54 50 45 40 36 32 31 31 29 24 19 17 15 12 10 10 8 7 7 7 7 6 6 5 4 2 359
149 147 130 174 170 160 160 165 166 160 157 166 175 172 169 170 169 165 161 159 158 161 164 165 166 168 171 170 168 168 173 171 166 165 165 162 161 162 163 162 159 152 146 145 145 141 136 128 121 113 105 100 96 90 81 71 65 64 63 62 58 52 47 43 36 31 29 30 28 22 18 17 17 16 15 12 9 8 9 11 13 14 14 13 10 7
123 115 94 218 188 176 172 169 169 173 178 176 170 164 160 161 165 166 164 161 158 157 161 165 168 169 169 165 162 165 172 171 166 162 162 161 161 163 159 152 147 144 145 146 145 140 134 125 116 108 103 99 94 87 81 76 70 66 65 66 67 62 54 48 43 38 32 29 28 25 22 21 20 18 17 18 17 14 12 12 13 15 18 19 17 13
Height
3084 3085 3082 3080 3082 3086 3090 3093 3096 3097 3097 3098 3099 3100 3100 3100 3099 3098 3100 3103 3107 3111 3113 3114 3115 3118 3120 3121 3123 3124 3127 3129 3130 3130 3130 3131 3133 3135 3136 3136 3137 3138 3140 3141 3141 3141 3141 3141 3141 3141 3141 3142 3143 3143 3144 3145 3146 3147 3149 3150 3151 3152 3153 3153 3153 3154 3155 3155 3155 3154 3154 3154 3154 3154 3154 3153 3153 3154 3154 3153 3153 3151 3150 3149 3148 3146
3080 3078 3075 3077 3082 3087 3090 3092 3095 3095 3095 3096 3097 3097 3098 3098 3096 3096 3098 3101 3106 3109 3111 3112 3113 3116 3118 3120 3122 3124 3126 3128 3128 3130 3131 3132 3133 3133 3133 3134 3135 3137 3138 3139 3139 3140 3141 3141 3141 3141 3141 3142 3143 3143 3144 3144 3145 3146 3148 3149 3150 3152 3153 3153 3153 3153 3153 3153 3152 3152 3152 3152 3152 3153 3152 3152 3152 3152 3152 3152 3151 3150 3149 3147 3146 3145
3074 3070 3072 3079 3084 3087 3090 3091 3094 3094 3093 3094 3094 3095 3095 3095 3094 3095 3096 3099 3104 3107 3108 3111 3112 3115 3118 3120 3121 3123 3125 3127 3128 3130 3131 3131 3131 3129 3130 3133 3134 3136 3137 3138 3139 3139 3140 3141 3141 3141 3141 3142 3143 3143 3144 3145 3145 3146 3146 3147 3148 3149 3150 3149 3149 3149 3149 3150 3150 3150 3151 3151 3151 3151 3151 3151 3151 3151 3151 3150 3149 3148 3147 3145 3144 3143
3066 3067 3073 3080 3082 3085 3087 3089 3092 3092 3092 3092 3091 3091 3091 3092 3092 3091 3093 3097 3102 3105 3107 3110 3112 3114 3117 3119 3121 3123 3124 3125 3127 3130 3129 3128 3128 3127 3129 3132 3134 3136 3137 3137 3138 3139 3140 3141 3141 3141 3141 3142 3143 3144 3144 3145 3145 3146 3147 3147 3147 3148 3148 3147 3147 3147 3148 3149 3149 3149 3150 3150 3150 3150 3150 3149 3149 3149 3149 3148 3147 3146 3145 3143 3142 3141
3064 3068 3074 3078 3080 3083 3084 3086 3089 3089 3089 3089 3089 3087 3087 3090 3090 3089 3091 3095 3101 3105 3105 3107 3111 3114 3116 3118 3120 3121 3123 3124 3126 3128 3127 3127 3127 3127 3128 3130 3132 3135 3136 3137 3138 3138 3139 3140 3140 3140 3141 3142 3143 3143 3144 3145 3145 3146 3146 3147 3147 3148 3148 3148 3148 3148 3148 3148 3148 3148 3148 3149 3149 3148 3148 3148 3147 3147 3146 3145 3144 3143 3142 3141 3140 3138
3065 3069 3072 3075 3077 3079 3081 3083 3085 3086 3087 3087 3086 3085 3086 3088 3088 3088 3090 3094 3099 3101 3102 3103 3108 3113 3115 3117 3119 3120 3121 3122 3124 3125 3125 3125 3126 3126 3126 3127 3129 3133 3136 3136 3137 3138 3139 3139 3139 3140 3140 3141 3142 3143 3144 3144 3145 3145 3146 3147 3147 3148 3148 3148 3147 3147 3147 3147 3147 3147 3147 3147 3147 3146 3146 3145 3145 3144 3143 3143 3142 3141 3140 3139 3138 3136
3063 3067 3069 3071 3074 3076 3079 3080 3081 3084 3085 3084 3084 3085 3085 3086 3086 3087 3090 3094 3096 3098 3099 3101 3104 3110 3114 3115 3116 3117 3119 3121 3122 3123 3123 3124 3126 3125 3125 3126 3128 3131 3134 3135 3135 3137 3138 3138 3139 3139 3140 3141 3142 3143 3143 3144 3144 3145 3145 3146 3146 3147 3147 3147 3147 3147 3146 3146 3146 3145 3145 3145 3144 3144 3143 3143 3143 3142 3141 3140 3139 3138 3137 3137 3135 3134
3060 3063 3066 3068 3071 3073 3075 3075 3078 3081 3082 3081 3083 3085 3085 3084 3084 3086 3089 3094 3097 3098 3099 3100 3103 3107 3110 3112 3114 3115 3118 3119 3120 3122 3122 3122 3123 3123 3124 3126 3127 3129 3131 3132 3133 3135 3136 3137 3138 3138 3139 3140 3141 3142 3143 3143 3144 3144 3145 3145 3145 3146 3146 3146 3146 3146 3145 3145 3144 3144 3143 3143 3143 3142 3141 3141 3140 3140 3139 3139 3137 3135 3134 3134 3133 3131
3057 3060 3062 3065 3068 3069 3070 3072 3076 3079 3079 3080 3082 3085 3084 3083 3083 3085 3089 3093 3097 3098 3097 3097 3101 3104 3106 3109 3111 3113 3115 3117 3118 3120 3119 3119 3120 3122 3123 3124 3125 3127 3128 3129 3131 3133 3134 3135 3137 3138 3139 3140 3140 3141 3142 3143 3143 3144 3144 3145 3145 3145 3145 3145 3144 3144 3144 3143 3143 3142 3142 3141 3141 3140 3139 3138 3138 3137 3137 3136 3135 3133 3132 3131 3130 3129
3055 3057 3060 3063 3064 3065 3068 3072 3074 3076 3078 3079 3081 3084 3083 3083 3083 3084 3087 3091 3095 3096 3094 3094 3098 3101 3103 3106 3108 3110 3111 3113 3115 3117 3116 3116 3119 3121 3122 3122 3124 3125 3126 3128 3129 3131 3133 3134 3136 3137 3138 3139 3140 3140 3141 3142 3143 3143 3143 3143 3144 3144 3143 3143 3143 3143 3142 3142 3141 3140 3140 3139 3139 3138 3137 3136 3136 3135 3134 3133 3132 3130 3129 3129 3128 3127
3053 3056 3059 3060 3062 3064 3068 3071 3072 3074 3077 3078 3079 3082 3082 3082 3082 3083 3084 3088 3092 3093 3092 3092 3095 3097 3100 3102 3104 3106 3107 3108 3110 3112 3113 3115 3117 3118 3119 3121 3122 3124 3125 3126 3128 3130 3131 3133 3135 3136 3137 3138 3139 3140 3140 3141 3142 3142 3142 3142 3142 3142 3142 3142 3142 3141 3141 3140 3140 3139 3138 3137 3137 3136 3135 3135 3134 3133 3131 3130 3129 3128 3127 3126 3125 3125
3051 3053 3054 3056 3060 3063 3066 3069 3070 3073 3076 3076 3076 3080 3081 3080 3081 3080 3081 3086 3090 3090 3090 3091 3093 3095 3095 3097 3102 3106 3106 3106 3107 3110 3112 3114 3115 3117 3118 3119 3121 3123 3124 3125 3127 3129 3130 3132 3134 3135 3136 3137 3138 3139 3139 3140 3141 3141 3141 3141 3141 3141 3141 3141 3140 3140 3139 3139 3138 3137 3136 3135 3135 3134 3133 3132 3132 3131 3130 3129 3127 3126 3124 3123 3123 3122
3047 3048 3051 3053 3057 3060 3062 3065 3067 3070 3073 3073 3074 3077 3078 3078 3079 3077 3077 3082 3086 3086 3087 3088 3091 3093 3093 3095 3100 3103 3102 3103 3107 3110 3111 3113 3114 3115 3117 3118 3120 3121 3122 3124 3126 3128 3130 3131 3133 3134 3135 3136 3137 3138 3139 3139 3139 3140 3140 3140 3140 3140 3140 3139 3139 3139 3138 3137 3136 3135 3134 3133 3132 3132 3131 3131 3130 3129 3129 3127 3126 3124 3123 3121 3120 3120
3043 3046 3049 3050 3053 3057 3059 3060 3061 3064 3067 3069 3070 3072 3072 3073 3075 3075 3076 3081 3083 3084 3085 3087 3089 3090 3092 3095 3098 3099 3098 3100 3106 3108 3109 3111 3112 3114 3116 3117 3118 3120 3122 3124 3125 3127 3129 3130 3131 3132 3134 3135 3136 3137 3137 3138 3138 3138 3138 3138 3138 3138 3138 3138 3138 3137 3137 3136 3135 3134 3133 3132 3131 3130 3129 3129 3128 3127 3127 3125 3124 3122 3121 3119 3118 3117
3039 3041 3043 3045 3049 3053 3056 3057 3058 3062 3065 3066 3067 3070 3069 3069 3071 3071 3073 3078 3080 3081 3083 3085 3088 3089 3090 3094 3096 3097 3098 3100 3103 3105 3106 3110 3111 3112 3114 3115 3117 3119 3121 3123 3125 3126 3128 3129 3130 3131 3133 3134 3135 3136 3136 3136 3137 3137 3137 3137 3137 3137 3137 3137 3137 3136 3136 3135 3134 3133 3132 3131 3130 3129 3127 3126 3126 3125 3124 3123 3121 3119 3118 3116 3115 3114
3037 3037 3040 3045 3048 3051 3054 3056 3059 3062 3064 3065 3067 3068 3067 3068 3070 3070 3072 3074 3076 3078 3079 3082 3087 3090 3091 3094 3095 3096 3097 3098 3101 3103 3106 3108 3109 3111 3113 3114 3116 3119 3120 3122 3124 3125 3127 3128 3129 3131 3132 3133 3133 3134 3135 3135 3136 3136 3136 3136 3136 3136 3136 3136 3135 3135 3134 3133 3132 3132 3131 3130 3129 3128 3126 3125 3124 3123 3122 3121 3119 3116 3114 3113 3112 3112
3034 3035 3040 3045 3048 3050 3053 3055 3057 3059 3060 3063 3064 3063 3064 3068 3070 3071 3073 3074 3075 3077 3078 3081 3086 3091 3092 3094 3096 3096 3096 3098 3101 3103 3106 3107 3108 3110 3111 3114 3116 3118 3119 3121 3123 3124 3126 3127 3129 3130 3130 3131 3132 3133 3133 3134 3134 3134 3134 3135 3135 3134 3134 3134 3134 3133 3133 3132 3131 3130 3129 3128 3127 3126 3125 3124 3123 3122 3120 3119 3116 3113 3111 3110 3109 3109
3033 3035 3039 3043 3045 3048 3052 3055 3056 3057 3059 3060 3060 3061 3066 3069 3069 3071 3073 3074 3076 3077 3077 3080 3084 3088 3091 3093 3095 3095 3096 3098 3100 3103 3105 3106 3108 3109 3111 3113 3115 3117 3118 3120 3122 3123 3125 3126 3127 3128 3129 3130 3131 3131 3132 3133 3133 3133 3133 3133 3133 3133 3133 3133 3132 3132 3132 3131 3130 3129 3128 3127 3126 3125 3124 3123 3122 3121 3118 3116 3113 3111 3109 3108 3107 3106
3032 3034 3038 3042 3044 3047 3052 3053 3053 3056 3058 3058 3060 3062 3066 3066 3066 3068 3070 3072 3075 3075 3076 3080 3083 3085 3088 3088 3091 3094 3095 3097 3099 3101 3103 3105 3106 3108 3110 3112 3114 3116 3117 3119 3121 3123 3124 3125 3126 3127 3128 3129 3129 3130 3131 3131 3132 3132 3132 3131 3131 3132 3132 3132 3131 3131 3130 3130 3129 3128 3127 3126 3125 3124 3123 3122 3121 3119 3117 3114 3111 3109 3107 3106 3105 3105
3031 3032 3036 3040 3043 3045 3049 3050 3049 3052 3055 3057 3059 3062 3064 3064 3064 3066 3067 3070 3072 3071 3074 3082 3084 3084 3086 3087 3089 3092 3093 3094 3097 3099 3101 3103 3104 3106 3108 3110 3112 3114 3117 3118 3120 3122 3123 3124 3125 3126 3127 3128 3128 3129 3129 3130 3130 3131 3130 3130 3130 3131 3131 3131 3130 3129 3129 3128 3128 3127 3126 3125 3124 3123 3122 3121 3119 3118 3115 3112 3109 3107 3106 3105 3104 3104
3031 3031 3034 3039 3042 3043 3044 3044 3044 3047 3050 3053 3055 3058 3060 3062 3063 3064 3065 3067 3069 3068 3070 3078 3082 3083 3085 3087 3088 3089 3090 3092 3094 3097 3099 3101 3103 3105 3107 3109 3111 3113 3116 3118 3119 3120 3121 3123 3124 3125 3126 3126 3127 3127 3128 3128 3129 3130 3129 3129 3130 3130 3130 3129 3129 3128 3128 3127 3126 3125 3125 3123 3122 3121 3120 3119 3118 3116 3114 3112 3109 3107 3105 3104 3104 3104
3030 3031 3034 3037 3039 3040 3040 3042 3044 3046 3049 3051 3053 3055 3058 3060 3061 3061 3061 3063 3066 3066 3066 3071 3078 3081 3083 3086 3087 3087 3088 3090 3092 3095 3097 3099 3101 3104 3105 3108 3110 3113 3115 3117 3118 3119 3120 3121 3123 3124 3124 3125 3126 3126 3127 3127 3128 3129 3128 3128 3129 3128 3128 3128 3127 3127 3126 3126 3125 3124 3123 3122 3121 3120 3119 3118 3117 3115 3113 3111 3109 3107 3105 3104 3104 3103
3029 3031 3034 3036 3037 3039 3041 3043 3045 3047 3050 3052 3054 3056 3057 3058 3059 3058 3059 3061 3063 3065 3065 3067 3074 3081 3082 3083 3086 3088 3089 3089 3091 3093 3096 3098 3100 3102 3105 3107 3110 3112 3114 3115 3117 3118 3119 3120 3121 3122 3123 3124 3124 3125 3125 3126 3127 3127 3127 3127 3127 3127 3127 3127 3126 3126 3125 3124 3124 3123 3122 3121 3120 3119 3118 3117 3116 3114 3112 3110 3109 3107 3106 3104 3104 3103
3029 3030 3034 3037 3039 3040 3042 3044 3046 3047 3049 3051 3053 3054 3055 3056 3057 3058 3059 3060 3061 3063 3064 3066 3074 3081 3082 3083 3085 3088 3089 3089 3091 3093 3095 3097 3099 3101 3104 3107 3109 3111 3112 3114 3115 3116 3118 3119 3120 3121 3121 3122 3123 3124 3124 3125 3125 3126 3126 3125 3125 3125 3125 3125 3125 3124 3123 3123 3122 3121 3120 3120 3119 3118 3117 3116 3115 3113 3112 3110 3108 3107 3106 3104 3103 3102
3027 3029 3032 3035 3038 3039 3040 3041 3044 3046 3047 3048 3050 3052 3053 3054 3056 3057 3059 3060 3061 3062 3063 3068 3075 3080 3081 3083 3085 3086 3088 3089 3091 3094 3095 3097 3099 3101 3103 3106 3107 3109 3111 3113 3114 3115 3116 3118 3118 3119 3120 3121 3122 3123 3123 3124 3124 3124 3124 3124 3124 3124 3124 3123 3123 3123 3122 3121 3120 3120 3119 3118 3117 3117 3116 3115 3113 3112 3111 3109 3108 3106 3105 3104 3103 3101
3026 3028 3030 3031 3032 3033 3033 3034 3037 3040 3042 3045 3047 3049 3050 3052 3054 3056 3058 3060 3061 3062 3064 3067 3073 3079 3082 3083 3085 3085 3086 3088 3091 3093 3095 3097 3099 3101 3103 3105 3106 3108 3110 3112 3113 3114 3115 3116 3117 3119 3120 3120 3121 3122 3122 3123 3123 3123 3123 3123 3122 3122 3122 3122 3122 3121 3120 3120 3119 3118 3118 3117 3116 3115 3114 3113 3112 3111 3109 3108 3107 3105 3104 3103 3102 3100
3026 3028 3029 3030 3030 3031 3032 3033 3037 3040 3041 3042 3044 3047 3049 3051 3053 3054 3056 3057 3060 3063 3065 3065 3068 3075 3081 3082 3084 3086 3086 3087 3090 3092 3094 3096 3097 3100 3102 3104 3105 3107 3109 3111 3112 3114 3114 3115 3116 3118 3118 3119 3120 3120 3121 3121 3121 3121 3121 3121 3121 3121 3121 3120 3120 3119 3119 3118 3117 3117 3116 3115 3114 3114 3113 3112 3111 3110 3108 3107 3105 3104 3103 3102 3101 3099
3026 3027 3028 3030 3030 3032 3034 3036 3038 3039 3040 3041 3043 3046 3049 3050 3051 3053 3054 3056 3058 3061 3065 3067 3067 3070 3078 3081 3081 3083 3084 3085 3088 3090 3093 3095 3097 3099 3101 3103 3105 3106 3108 3110 3111 3112 3113 3114 3115 3116 3117 3118 3118 3119 3119 3119 3120 3120 3120 3120 3120 3119 3119 3119 3118 3118 3117 3116 3115 3115 3114 3113 3112 3112 3111 3110 3109 3108 3107 3105 3104 3102 3101 3100 3099 3098
3025 3026 3027 3028 3030 3032 3033 3034 3036 3038 3039 3042 3043 3044 3048 3050 3050 3052 3053 3054 3057 3059 3063 3069 3069 3070 3076 3079 3080 3082 3083 3084 3087 3090 3093 3095 3097 3099 3101 3102 3104 3106 3107 3109 3110 3111 3112 3113 3114 3115 3115 3116 3117 3117 3118 3118 3118 3118 3118 3118 3118 3118 3117 3117 3116 3116 3115 3114 3113 3113 3112 3111 3110 3110 3109 3108 3107 3106 3105 3104 3102 3101 3099 3098 3098 3097
3024 3024 3026 3029 3031 3032 3033 3033 3035 3036 3038 3041 3044 3044 3047 3050 3050 3050 3051 3052 3055 3058 3061 3067 3071 3072 3076 3078 3078 3081 3082 3084 3087 3090 3092 3095 3097 3099 3100 3102 3103 3105 3106 3108 3109 3111 3111 3112 3112 3113 3114 3115 3115 3116 3116 3117 3117 3117 3117 3117 3117 3116 3116 3115 3114 3114 3113 3112 3112 3111 3110 3109 3108 3107 3106 3106 3105 3104 3103 3102 3100 3099 3098 3097 3096 3095
3023 3023 3026 3029 3031 3033 3033 3033 3034 3036 3038 3041 3043 3044 3046 3048 3048 3049 3051 3052 3054 3057 3061 3064 3068 3072 3075 3077 3077 3079 3081 3084 3088 3090 3092 3094 3097 3098 3100 3101 3103 3104 3106 3107 3108 3110 3110 3111 3111 3112 3113 3113 3114 3114 3115 3115 3115 3115 3115 3115 3115 3115 3114 3113 3112 3112 3111 3111 3110 3109 3108 3107 3106 3105 3104 3103 3102 3101 3100 3099 3098 3097 3096 3095 3093 3092
3021 3023 3025 3028 3030 3032 3032 3031 3032 3035 3037 3039 3041 3042 3043 3044 3046 3047 3050 3053 3054 3057 3060 3063 3065 3069 3072 3075 3076 3078 3081 3085 3088 3090 3092 3094 3096 3098 3099 3101 3102 3104 3105 3106 3108 3108 3109 3110 3111 3111 3112 3112 3112 3113 3113 3113 3113 3113 3113 3113 3113 3113 3111 3110 3110 3110 3110 3109 3108 3107 3106 3105 3104 3103 3102 3101 3100 3099 3098 3097 3096 3095 3093 3092 3091 3090
3021 3023 3024 3027 3029 3032 3031 3031 3032 3033 3035 3038 3040 3041 3041 3042 3045 3048 3050 3054 3057 3058 3060 3062 3064 3067 3069 3071 3074 3078 3082 3085 3087 3089 3091 3093 3095 3097 3098 3100 3102 3103 3105 3106 3107 3108 3109 3110 3110 3110 3110 3110 3111 3111 3112 3112 3112 3112 3111 3111 3112 3110 3109 3108 3109 3108 3108 3107 3106 3105 3104 3103 3102 3101 3099 3098 3097 3096 3095 3094 3093 3092 3091 3090 3088 3087
3022 3023 3024 3026 3029 3031 3031 3033 3035 3034 3036 3040 3041 3040 3041 3042 3045 3049 3052 3055 3058 3059 3060 3062 3065 3067 3069 3071 3073 3077 3080 3083 3085 3088 3090 3092 3095 3096 3098 3100 3101 3103 3104 3105 3106 3107 3108 3108 3109 3109 3109 3109 3110 3110 3111 3111 3110 3110 3111 3111 3110 3109 3106 3106 3107 3106 3106 3105 3104 3103 3102 3100 3099 3098 3097 3096 3095 3094 3092 3091 3090 3089 3088 3087 3085 3084
3021 3022 3024 3026 3029 3031 3031 3035 3038 3037 3038 3041 3041 3041 3042 3044 3047 3050 3052 3055 3058 3059 3061 3063 3065 3067 3068 3070 3073 3076 3078 3081 3084 3087 3089 3092 3094 3096 3098 3099 3101 3102 3104 3105 3106 3106 3106 3107 3107 3108 3109 3109 3109 3109 3110 3109 3108 3109 3109 3108 3107 3107 3105 3104 3105 3105 3104 3103 3102 3101 3099 3098 3097 3096 3094 3093 3092 3091 3089 3088 3087 3086 3084 3083 3082 3081
3021 3023 3025 3027 3029 3031 3033 3037 3039 3040 3041 3041 3042 3043 3044 3046 3050 3053 3053 3056 3058 3059 3061 3063 3064 3066 3067 3069 3072 3074 3077 3080 3083 3086 3089 3091 3093 3095 3097 3099 3100 3101 3103 3104 3105 3105 3105 3106 3107 3108 3108 3108 3108 3108 3108 3108 3108 3108 3107 3106 3105 3105 3104 3103 3103 3103 3102 3101 3100 3099 3097 3096 3095 3093 3092 3091 3089 3088 3087 3085 3084 3083 3082 3080 3079 3077
3020 3023 3025 3028 3030 3031 3034 3036 3038 3040 3042 3042 3043 3045 3047 3049 3052 3054 3055 3057 3058 3059 3061 3062 3063 3065 3067 3068 3071 3073 3077 3081 3084 3086 3089 3091 3093 3095 3097 3098 3099 3100 3102 3103 3104 3104 3105 3106 3107 3107 3107 3107 3107 3107 3107 3106 3106 3106 3106 3105 3104 3103 3102 3101 3101 3100 3099 3099 3098 3096 3095 3094 3092 3091 3090 3088 3087 3086 3084 3083 3082 3080 3079 3078 3076 3075
3021 3022 3024 3028 3030 3031 3032 3035 3037 3039 3040 3041 3043 3045 3047 3049 3051 3053 3055 3057 3057 3058 3060 3061 3063 3065 3066 3068 3070 3074 3077 3081 3083 3086 3088 3090 3092 3094 3096 3097 3099 3100 3101 3102 3103 3104 3105 3106 3106 3106 3106 3106 3105 3105 3105 3105 3105 3104 3104 3103 3103 3101 3100 3100 3100 3099 3098 3097 3096 3094 3093 3092 3091 3089 3088 3086 3085 3084 3082 3081 3079 3077 3076 3075 3073 3072
3021 3022 3024 3027 3030 3031 3032 3034 3037 3039 3039 3040 3042 3045 3047 3049 3050 3053 3055 3056 3056 3058 3059 3061 3063 3065 3066 3068 3071 3074 3077 3080 3082 3085 3087 3089 3092 3094 3095 3097 3098 3099 3100 3101 3102 3103 3104 3105 3105 3105 3105 3105 3104 3104 3104 3104 3103 3103 3103 3102 3101 3100 3099 3099 3098 3097 3096 3095 3094 3093 3091 3090 3089 3087 3086 3084 3083 3082 3081 3079 3077 3075 3074 3072 3071 3069
3020 3021 3023 3027 3029 3030 3031 3033 3037 3040 3041 3041 3043 3045 3047 3049 3051 3053 3054 3053 3055 3057 3058 3060 3062 3064 3066 3069 3071 3074 3076 3079 3081 3084 3087 3090 3092 3094 3095 3096 3097 3098 3099 3100 3101 3102 3103 3103 3104 3104 3104 3103 3103 3103 3103 3103 3102 3102 3101 3101 3100 3099 3098 3097 3096 3096 3095 3093 3092 3091 3090 3089 3087 3086 3084 3083 3081 3080 3079 3077 3075 3074 3072 3070 3069 3067
3019 3021 3023 3026 3028 3030 3031 3034 3037 3040 3042 3043 3045 3046 3047 3049 3051 3052 3051 3051 3053 3056 3057 3059 3061 3063 3066 3069 3071 3073 3075 3079 3082 3084 3086 3088 3090 3092 3094 3095 3096 3097 3098 3099 3100 3101 3102 3102 3102 3102 3102 3102 3102 3102 3102 3101 3101 3100 3100 3100 3099 3098 3097 3096 3095 3094 3093 3092 3090 3089 3089 3088 3086 3084 3083 3081 3080 3079 3077 3075 3074 3072 3070 3069 3067 3065
3019 3022 3024 3027 3028 3029 3031 3033 3037 3040 3041 3043 3044 3045 3047 3049 3050 3049 3049 3050 3053 3055 3057 3059 3061 3063 3066 3067 3070 3072 3075 3079 3082 3084 3086 3087 3089 3090 3092 3094 3095 3096 3097 3099 3100 3100 3101 3101 3101 3101 3102 3101 3101 3101 3101 3101 3100 3099 3099 3099 3098 3097 3096 3095 3094 3093 3092 3091 3089 3088 3088 3087 3085 3083 3082 3080 3079 3077 3075 3074 3072 3070 3069 3067 3065 3064
3019 3021 3024 3026 3027 3029 3031 3033 3036 3039 3040 3041 3043 3045 3046 3047 3047 3047 3049 3051 3053 3055 3057 3059 3061 3063 3064 3067 3070 3073 3076 3079 3081 3083 3085 3087 3088 3090 3091 3093 3094 3096 3097 3098 3099 3100 3100 3100 3100 3100 3101 3101 3101 3101 3100 3100 3099 3098 3098 3097 3097 3096 3095 3094 3093 3092 3091 3090 3088 3087 3087 3086 3084 3082 3081 3080 3078 3076 3074 3072 3070 3069 3067 3065 3064 3062
3019 3020 3022 3024 3027 3028 3031 3034 3036 3038 3039 3041 3042 3043 3044 3045 3046 3048 3049 3051 3054 3056 3058 3059 3061 3063 3065 3068 3071 3074 3076 3079 3081 3083 3084 3086 3088 3089 3090 3092 3094 3095 3096 3097 3098 3099 3099 3099 3099 3100 3100 3100 3100 3100 3099 3099 3098 3098 3097 3097 3096 3095 3094 3094 3092 3091 3090 3089 3088 3087 3086 3085 3084 3082 3080 3079 3077 3075 3073 3071 3069 3068 3066 3064 3062 3061
3021 3022 3023 3025 3027 3029 3030 3033 3035 3037 3039 3040 3040 3042 3044 3045 3047 3049 3050 3052 3054 3056 3058 3060 3061 3063 3066 3069 3071 3074 3076 3078 3080 3082 3084 3085 3087 3089 3090 3091 3093 3094 3095 3096 3097 3098 3098 3098 3099 3099 3099 3100 3099 3099 3099 3098 3098 3097 3097 3096 3096 3095 3094 3093 3093 3091 3090 3089 3088 3087 3085 3084 3083 3081 3079 3078 3076 3075 3073 3071 3069 3067 3065 3063 3061 3059
3024 3025 3025 3026 3028 3030 3032 3034 3036 3037 3038 3039 3040 3042 3044 3046 3047 3049 3051 3053 3054 3056 3058 3060 3062 3063 3066 3068 3071 3074 3076 3078 3079 3081 3083 3085 3086 3088 3089 3091 3092 3094 3095 3095 3096 3097 3097 3098 3098 3099 3099 3099 3099 3099 3099 3098 3098 3097 3097 3096 3096 3095 3094 3093 3092 3091 3090 3089 3088 3086 3085 3084 3083 3081 3079 3078 3076 3074 3072 3070 3068 3066 3064 3062 3061 3059
3025 3025 3025 3026 3028 3030 3033 3035 3037 3037 3038 3039 3040 3042 3044 3046 3048 3049 3051 3053 3055 3056 3058 3060 3062 3064 3066 3069 3071 3074 3075 3077 3079 3081 3082 3084 3085 3087 3089 3090 3091 3093 3093 3094 3095 3096 3097 3098 3098 3099 3099 3099 3099 3099 3098 3098 3098 3097 3097 3096 3096 3095 3094 3093 3092 3091 3090 3089 3088 3086 3085 3084 3082 3081 3079 3078 3076 3074 3072 3070 3068 3066 3065 3063 3061 3059
3025 3025 3026 3027 3029 3031 3033 3035 3037 3038 3039 3040 3040 3042 3044 3046 3047 3049 3051 3053 3054 3056 3058 3060 3062 3064 3066 3069 3072 3074 3075 3077 3079 3080 3081 3083 3085 3086 3088 3089 3091 3091 3092 3093 3095 3096 3097 3098 3099 3099 3099 3099 3099 3098 3098 3098 3098 3097 3097 3096 3095 3095 3094 3093 3092 3091 3090 3089 3087 3086 3085 3083 3082 3081 3079 3078 3076 3074 3072 3070 3069 3067 3065 3062 3061 3059
3025 3025 3026 3027 3028 3030 3032 3034 3036 3037 3039 3040 3041 3042 3044 3046 3047 3049 3051 3052 3054 3056 3057 3060 3062 3065 3067 3069 3071 3073 3075 3077 3078 3080 3081 3083 3084 3086 3087 3089 3090 3090 3092 3093 3094 3096 3097 3098 3099 3099 3099 3098 3099 3099 3098 3098 3098 3097 3097 3096 3095 3095 3094 3093 3092 3091 3090 3089 3088 3086 3085 3084 3082 3081 3079 3078 3076 3074 3073 3071 3069 3067 3065 3063 3061 3059
3025 3025 3027 3028 3028 3030 3031 3033 3035 3036 3038 3039 3040 3042 3045 3046 3048 3050 3051 3053 3055 3057 3058 3060 3062 3065 3067 3069 3071 3073 3075 3076 3078 3080 3081 3083 3084 3086 3087 3088 3089 3090 3092 3093 3095 3096 3098 3098 3099 3099 3099 3099 3099 3099 3099 3098 3098 3097 3097 3096 3096 3095 3094 3094 3092 3091 3090 3089 3088 3087 3085 3084 3082 3081 3080 3078 3076 3075 3073 3072 3070 3068 3066 3064 3062 3060
3024 3026 3027 3028 3028 3030 3031 3033 3035 3036 3037 3038 3040 3043 3045 3047 3049 3050 3052 3053 3055 3057 3060 3062 3063 3065 3067 3069 3071 3073 3075 3076 3078 3079 3081 3083 3084 3085 3087 3088 3089 3091 3092 3094 3095 3097 3097 3098 3098 3099 3099 3099 3099 3099 3099 3099 3098 3098 3097 3097 3096 3096 3095 3094 3093 3092 3091 3090 3088 3087 3086 3084 3083 3082 3080 3079 3077 3075 3074 3072 3071 3069 3067 3066 3063 3061